Time,TemperatureF,DewpointF,PressureIn,WindDirection,WindDirectionDegrees,WindSpeedMPH,WindSpeedGustMPH,Humidity,HourlyPrecipIn,Conditions,Clouds,dailyrainin,SoftwareType,DateUTC
2015-09-02 00:09:00,66.6,63.0,30.00,NNE,15,0.0,0.0,89,0.00,,,0.00,weatherlink.com 1.10,2015-09-02 04:09:00,
2015-09-02 00:24:00,66.1,63.0,30.00,WSW,257,0.0,1.0,90,0.00,,,0.00,weatherlink.com 1.10,2015-09-02 04:24:00,
2015-09-02 00:41:00,65.9,63.0,30.00,WSW,256,0.0,1.0,91,0.00,,,0.00,weatherlink.com 1.10,2015-09-02 04:41:00,
2015-09-02 00:54:00,65.8,63.0,30.00,NNW,339,0.0,1.0,91,0.00,,,0.00,weatherlink.com 1.10,2015-09-02 04:54:00,
2015-09-02 01:09:00,65.4,63.0,30.00,NNW,339,0.0,1.0,91,0.00,,,0.00,weatherlink.com 1.10,2015-09-02 05:09:00,
2015-09-02 01:24:00,65.1,63.0,30.00,NNW,339,0.0,0.0,92,0.00,,,0.00,weatherlink.com 1.10,2015-09-02 05:24:00,
2015-09-02 01:39:00,65.0,63.0,30.00,NNW,338,0.0,0.0,92,0.00,,,0.00,weatherlink.com 1.10,2015-09-02 05:39:00,
2015-09-02 01:54:00,65.1,63.0,29.99,WNW,288,0.0,1.0,91,0.00,,,0.00,weatherlink.com 1.10,2015-09-02 05:54:00,
2015-09-02 02:10:00,64.8,63.0,29.99,WSW,240,0.0,0.0,92,0.00,,,0.00,weatherlink.com 1.10,2015-09-02 06:10:00,
2015-09-02 02:25:00,64.8,63.0,29.99,NNE,14,0.0,1.0,92,0.00,,,0.00,weatherlink.com 1.10,2015-09-02 06:25:00,
2015-09-02 02:40:00,64.5,62.0,29.98,North,11,0.0,1.0,92,0.00,,,0.00,weatherlink.com 1.10,2015-09-02 06:40:00,
2015-09-02 02:55:00,64.1,62.0,29.98,NNW,347,0.0,1.0,92,0.00,,,0.00,weatherlink.com 1.10,2015-09-02 06:55:00,
2015-09-02 03:10:00,63.6,62.0,29.98,NNE,15,0.0,1.0,93,0.00,,,0.00,weatherlink.com 1.10,2015-09-02 07:10:00,
2015-09-02 03:25:00,63.3,61.0,29.98,NNE,14,0.0,0.0,93,0.00,,,0.00,weatherlink.com 1.10,2015-09-02 07:25:00,
2015-09-02 03:40:00,63.1,61.0,29.99,NNE,27,0.0,2.0,94,0.00,,,0.00,weatherlink.com 1.10,2015-09-02 07:40:00,
2015-09-02 03:55:00,63.2,61.0,29.98,North,5,0.0,0.0,93,0.00,,,0.00,weatherlink.com 1.10,2015-09-02 07:55:00,
2015-09-02 04:10:00,62.6,61.0,29.98,North,1,0.0,0.0,93,0.00,,,0.00,weatherlink.com 1.10,2015-09-02 08:10:00,
2015-09-02 04:25:00,62.2,61.0,29.98,North,1,0.0,0.0,94,0.00,,,0.00,weatherlink.com 1.10,2015-09-02 08:25:00,
2015-09-02 04:40:00,61.9,60.0,29.98,North,1,0.0,0.0,94,0.00,,,0.00,weatherlink.com 1.10,2015-09-02 08:40:00,
2015-09-02 04:55:00,61.8,60.0,29.98,North,8,0.0,1.0,95,0.00,,,0.00,weatherlink.com 1.10,2015-09-02 08:55:00,
2015-09-02 05:10:00,61.7,60.0,29.98,North,11,0.0,1.0,94,0.00,,,0.00,weatherlink.com 1.10,2015-09-02 09:10:00,
2015-09-02 05:25:00,61.8,60.0,29.98,WSW,256,1.0,1.0,95,0.00,,,0.00,weatherlink.com 1.10,2015-09-02 09:25:00,
2015-09-02 05:40:00,61.5,60.0,29.98,WSW,256,0.0,0.0,94,0.00,,,0.00,weatherlink.com 1.10,2015-09-02 09:40:00,
2015-09-02 05:55:00,61.2,60.0,29.98,North,4,0.0,1.0,94,0.00,,,0.00,weatherlink.com 1.10,2015-09-02 09:55:00,
2015-09-02 06:10:00,60.9,60.0,29.98,North,360,2.0,2.0,95,0.00,,,0.00,weatherlink.com 1.10,2015-09-02 10:10:00,
2015-09-02 06:25:00,60.8,59.0,29.98,West,269,0.0,1.0,94,0.00,,,0.00,weatherlink.com 1.10,2015-09-02 10:25:00,
2015-09-02 06:40:00,60.5,59.0,29.99,NNW,335,0.0,1.0,95,0.00,,,0.00,weatherlink.com 1.10,2015-09-02 10:40:00,
2015-09-02 06:55:00,60.4,59.0,29.99,NNW,335,0.0,1.0,95,0.00,,,0.00,weatherlink.com 1.10,2015-09-02 10:55:00,
2015-09-02 07:10:00,60.7,59.0,29.99,NNW,336,0.0,0.0,95,0.00,,,0.00,weatherlink.com 1.10,2015-09-02 11:10:00,
2015-09-02 07:25:00,61.3,60.0,29.99,NNW,336,0.0,1.0,95,0.00,,,0.00,weatherlink.com 1.10,2015-09-02 11:25:00,
2015-09-02 07:40:00,62.1,60.0,29.99,NNW,336,0.0,0.0,94,0.00,,,0.00,weatherlink.com 1.10,2015-09-02 11:40:00,
2015-09-02 07:55:00,63.4,62.0,29.99,NNW,335,0.0,0.0,94,0.00,,,0.00,weatherlink.com 1.10,2015-09-02 11:55:00,
2015-09-02 08:10:00,64.2,62.0,29.99,NNW,335,0.0,0.0,93,0.00,,,0.00,weatherlink.com 1.10,2015-09-02 12:10:00,
2015-09-02 08:26:00,65.9,64.0,29.99,SE,127,0.0,1.0,93,0.00,,,0.00,weatherlink.com 1.10,2015-09-02 12:26:00,
2015-09-02 08:40:00,67.1,65.0,29.99,ESE,116,0.0,1.0,92,0.00,,,0.00,weatherlink.com 1.10,2015-09-02 12:40:00,
2015-09-02 08:55:00,68.1,65.0,29.99,ESE,120,1.0,2.0,91,0.00,,,0.00,weatherlink.com 1.10,2015-09-02 12:55:00,
2015-09-02 09:10:00,68.4,66.0,29.99,ENE,65,1.0,2.0,91,0.00,,,0.00,weatherlink.com 1.10,2015-09-02 13:10:00,
2015-09-02 09:25:00,69.0,66.0,29.98,SE,127,0.0,2.0,90,0.00,,,0.00,weatherlink.com 1.10,2015-09-02 13:25:00,
2015-09-02 09:40:00,70.1,67.0,29.98,East,98,2.0,2.0,88,0.00,,,0.00,weatherlink.com 1.10,2015-09-02 13:40:00,
2015-09-02 09:55:00,70.9,67.0,29.97,SSW,212,1.0,3.0,87,0.00,,,0.00,weatherlink.com 1.10,2015-09-02 13:55:00,
2015-09-02 10:10:00,71.6,68.0,29.97,ESE,102,1.0,2.0,87,0.00,,,0.00,weatherlink.com 1.10,2015-09-02 14:10:00,
2015-09-02 10:25:00,72.1,67.0,29.97,SE,125,1.0,3.0,85,0.00,,,0.00,weatherlink.com 1.10,2015-09-02 14:25:00,
2015-09-02 10:40:00,73.2,67.0,29.97,ESE,104,1.0,3.0,82,0.00,,,0.00,weatherlink.com 1.10,2015-09-02 14:40:00,
2015-09-02 10:55:00,74.2,68.0,29.97,ESE,117,1.0,2.0,80,0.00,,,0.00,weatherlink.com 1.10,2015-09-02 14:55:00,
2015-09-02 11:11:00,75.1,67.0,29.96,West,280,1.0,2.0,77,0.00,,,0.00,weatherlink.com 1.10,2015-09-02 15:11:00,
2015-09-02 11:26:00,75.9,69.0,29.96,SE,125,1.0,2.0,78,0.00,,,0.00,weatherlink.com 1.10,2015-09-02 15:26:00,
2015-09-02 11:41:00,76.8,69.0,29.96,ESE,105,1.0,2.0,78,0.00,,,0.00,weatherlink.com 1.10,2015-09-02 15:41:00,
2015-09-02 11:56:00,78.3,69.0,29.95,ESE,105,2.0,2.0,73,0.00,,,0.00,weatherlink.com 1.10,2015-09-02 15:56:00,
2015-09-02 12:11:00,79.5,69.0,29.94,ESE,104,1.0,2.0,70,0.00,,,0.00,weatherlink.com 1.10,2015-09-02 16:11:00,
2015-09-02 12:41:00,81.3,70.0,29.93,ESE,115,2.0,2.0,68,0.00,,,0.00,weatherlink.com 1.10,2015-09-02 16:41:00,
2015-09-02 13:11:00,83.1,70.0,29.92,East,97,3.0,3.0,65,0.00,,,0.00,weatherlink.com 1.10,2015-09-02 17:11:00,
2015-09-02 13:26:00,83.3,71.0,29.92,East,85,2.0,3.0,67,0.00,,,0.00,weatherlink.com 1.10,2015-09-02 17:26:00,
2015-09-02 13:41:00,83.7,70.0,29.91,WSW,250,1.0,3.0,64,0.00,,,0.00,weatherlink.com 1.10,2015-09-02 17:41:00,
2015-09-02 13:56:00,84.5,70.0,29.91,East,85,4.0,4.0,62,0.00,,,0.00,weatherlink.com 1.10,2015-09-02 17:56:00,
2015-09-02 14:11:00,85.4,71.0,29.91,SE,128,1.0,5.0,62,0.00,,,0.00,weatherlink.com 1.10,2015-09-02 18:11:00,
2015-09-02 14:26:00,85.7,71.0,29.90,SW,225,0.0,3.0,61,0.00,,,0.00,weatherlink.com 1.10,2015-09-02 18:26:00,
2015-09-02 14:41:00,86.2,70.0,29.89,SE,146,0.0,3.0,59,0.00,,,0.00,weatherlink.com 1.10,2015-09-02 18:41:00,
2015-09-02 14:56:00,86.5,70.0,29.89,SW,219,1.0,3.0,58,0.00,,,0.00,weatherlink.com 1.10,2015-09-02 18:56:00,
2015-09-02 15:11:00,86.3,71.0,29.88,East,98,0.0,2.0,61,0.00,,,0.00,weatherlink.com 1.10,2015-09-02 19:11:00,
2015-09-02 15:26:00,86.8,70.0,29.88,SSW,208,0.0,2.0,58,0.00,,,0.00,weatherlink.com 1.10,2015-09-02 19:26:00,
2015-09-02 15:41:00,87.7,70.0,29.87,SSE,153,0.0,3.0,56,0.00,,,0.00,weatherlink.com 1.10,2015-09-02 19:41:00,
2015-09-02 15:57:00,88.0,70.0,29.86,West,262,1.0,2.0,56,0.00,,,0.00,weatherlink.com 1.10,2015-09-02 19:57:00,
2015-09-02 16:12:00,88.0,70.0,29.86,ESE,120,0.0,3.0,55,0.00,,,0.00,weatherlink.com 1.10,2015-09-02 20:12:00,
2015-09-02 16:27:00,87.6,70.0,29.85,East,101,1.0,4.0,56,0.00,,,0.00,weatherlink.com 1.10,2015-09-02 20:27:00,
2015-09-02 16:42:00,87.1,70.0,29.85,ENE,63,2.0,3.0,57,0.00,,,0.00,weatherlink.com 1.10,2015-09-02 20:42:00,
2015-09-02 16:57:00,86.1,71.0,29.85,West,277,0.0,4.0,60,0.00,,,0.00,weatherlink.com 1.10,2015-09-02 20:57:00,
2015-09-02 17:12:00,85.7,70.0,29.84,SW,225,1.0,3.0,60,0.00,,,0.00,weatherlink.com 1.10,2015-09-02 21:12:00,
2015-09-02 17:27:00,85.1,71.0,29.84,East,101,1.0,2.0,63,0.00,,,0.00,weatherlink.com 1.10,2015-09-02 21:27:00,
2015-09-02 17:42:00,84.5,70.0,29.84,SSW,204,2.0,3.0,63,0.00,,,0.00,weatherlink.com 1.10,2015-09-02 21:42:00,
2015-09-02 17:57:00,84.1,71.0,29.84,SE,131,0.0,2.0,65,0.00,,,0.00,weatherlink.com 1.10,2015-09-02 21:57:00,
2015-09-02 18:12:00,83.7,71.0,29.84,WSW,253,0.0,2.0,66,0.00,,,0.00,weatherlink.com 1.10,2015-09-02 22:12:00,
2015-09-02 18:27:00,83.1,71.0,29.84,NE,49,0.0,1.0,66,0.00,,,0.00,weatherlink.com 1.10,2015-09-02 22:27:00,
2015-09-02 18:42:00,82.4,70.0,29.84,WSW,243,0.0,1.0,67,0.00,,,0.00,weatherlink.com 1.10,2015-09-02 22:42:00,
2015-09-02 18:57:00,81.8,70.0,29.84,North,5,0.0,1.0,68,0.00,,,0.00,weatherlink.com 1.10,2015-09-02 22:57:00,
2015-09-02 19:12:00,80.1,71.0,29.85,WSW,258,1.0,1.0,73,0.00,,,0.00,weatherlink.com 1.10,2015-09-02 23:12:00,
2015-09-02 19:27:00,78.5,71.0,29.85,WSW,258,0.0,0.0,77,0.00,,,0.00,weatherlink.com 1.10,2015-09-02 23:27:00,
2015-09-02 19:42:00,77.7,70.0,29.85,WSW,258,0.0,1.0,78,0.00,,,0.00,weatherlink.com 1.10,2015-09-02 23:42:00,
2015-09-02 19:57:00,76.7,70.0,29.85,West,259,0.0,1.0,80,0.00,,,0.00,weatherlink.com 1.10,2015-09-02 23:57:00,
2015-09-02 20:12:00,76.0,70.0,29.85,West,260,0.0,1.0,82,0.00,,,0.00,weatherlink.com 1.10,2015-09-03 00:12:00,
2015-09-02 20:27:00,75.2,70.0,29.85,North,354,0.0,0.0,84,0.00,,,0.00,weatherlink.com 1.10,2015-09-03 00:27:00,
2015-09-02 20:42:00,74.6,70.0,29.85,WNW,294,0.0,1.0,85,0.00,,,0.00,weatherlink.com 1.10,2015-09-03 00:42:00,
2015-09-02 20:57:00,74.1,70.0,29.85,WNW,294,0.0,0.0,86,0.00,,,0.00,weatherlink.com 1.10,2015-09-03 00:57:00,
2015-09-02 21:12:00,73.6,69.0,29.84,West,280,0.0,0.0,86,0.00,,,0.00,weatherlink.com 1.10,2015-09-03 01:12:00,
2015-09-02 21:27:00,73.3,69.0,29.84,North,356,1.0,2.0,86,0.00,,,0.00,weatherlink.com 1.10,2015-09-03 01:27:00,
2015-09-02 21:42:00,72.8,69.0,29.84,NNE,14,0.0,1.0,87,0.00,,,0.00,weatherlink.com 1.10,2015-09-03 01:42:00,
2015-09-02 21:57:00,72.2,69.0,29.84,North,358,0.0,1.0,88,0.00,,,0.00,weatherlink.com 1.10,2015-09-03 01:57:00,
2015-09-02 22:12:00,71.7,68.0,29.84,West,269,0.0,1.0,88,0.00,,,0.00,weatherlink.com 1.10,2015-09-03 02:12:00,
2015-09-02 22:27:00,71.2,68.0,29.84,West,269,0.0,0.0,89,0.00,,,0.00,weatherlink.com 1.10,2015-09-03 02:27:00,
2015-09-02 22:42:00,70.8,68.0,29.85,West,269,0.0,1.0,90,0.00,,,0.00,weatherlink.com 1.10,2015-09-03 02:42:00,
2015-09-02 22:57:00,70.3,67.0,29.86,West,259,0.0,1.0,90,0.00,,,0.00,weatherlink.com 1.10,2015-09-03 02:57:00,
2015-09-02 23:12:00,69.9,67.0,29.86,WSW,249,0.0,1.0,91,0.00,,,0.00,weatherlink.com 1.10,2015-09-03 03:12:00,
2015-09-02 23:27:00,69.7,67.0,29.87,WSW,250,0.0,0.0,91,0.00,,,0.00,weatherlink.com 1.10,2015-09-03 03:27:00,